[[{"header":{"parameterUnit":"m.s-1","parameterCategory":1,"la1":30.2991,"la2":30.254,"lo1":-89.0895,"lo2":-89.0444,"dy":0.0017,"dx":0.0017,"nx":28,"ny":28,"refTime":"2025-04-14T09:00:00:Z","depth":0,"parameterNumber":2,"parameterNumberName":"U-component_of_WINDS"},"data":[0,0,0,0,0,0,0,0,0,0,0,0,0,0,0,0,0,0,0,0,0,0,0,0,0,0,0,0,0,0,0,0,0,0,0,0,0,0,0,0,0,0,0,0,0,0,0,0,0,0,0,0,0,0,0,0,0,0,1.5154,1.5156,0,1.5269,1.527,1.5272,1.531,1.5309,1.5309,1.5308,1.5428,1.5432,1.5435,0,0,0,0,0,0,0,0,0,0,0,0,0,1.4971,1.4974,1.5154,1.5156,1.5157,1.5269,1.527,1.5272,1.531,1.5309,1.5309,1.5308,1.5427,1.5431,1.5436,0,0,0,0,0,0,0,0,0,0,0,0,0,1.5064,1.4975,1.5154,1.519,1.5194,1.5268,1.527,1.5272,1.531,1.5309,1.5309,1.5308,1.5426,1.5431,1.5436,1.5485,0,0,1.5453,1.5455,0,0,0,0,0,0,0,0,1.5059,1.5071,1.5183,1.5187,1.5192,1.5274,1.525,1.5344,1.531,1.5266,1.5308,1.5308,1.5378,1.5387,1.541,1.549,1.5495,1.5453,1.5457,1.5459,1.5461,0,0,0,0,0,0,0,1.5053,1.5066,1.52,1.5185,1.519,1.5201,1.5213,1.5268,1.5325,1.527,1.5273,1.5286,1.538,1.5405,1.5413,1.5497,1.5453,1.5458,1.5461,1.5464,1.5623,1.5624,0,0,0,0,0,0,1.504,1.5061,1.5196,1.5203,1.5122,1.5204,1.5218,1.5249,1.5324,1.5335,1.5286,1.5287,1.5396,1.5407,1.5418,1.5479,1.5459,1.5464,1.5467,1.5622,1.5623,1.5624,0,0,0,0,0,0,1.5036,1.5051,1.5192,1.5133,1.5151,1.5208,1.5242,1.5251,1.5276,1.5337,1.5347,1.5301,1.5396,1.541,1.5468,1.5484,1.5467,1.5472,1.5621,1.5622,1.5624,1.5603,0,0,0,0,0,0,1.503,1.505,1.5068,1.5133,1.5154,1.5239,1.5243,1.5254,1.5285,1.5287,1.5353,1.5363,1.5396,1.5459,1.5473,1.5491,1.5476,1.562,1.5621,1.5623,1.5602,1.5603,1.5604,0,0,0,0,0,1.5023,1.5058,1.5069,1.5085,1.5178,1.5239,1.5252,1.5288,1.5286,1.5306,1.5345,1.5361,1.548,1.5465,1.5481,1.5501,1.5619,1.5621,1.5623,1.5602,1.5603,1.5604,0,0,0,0,0,0,1.4994,1.5067,1.508,1.5136,1.5181,1.5246,1.5271,1.5289,1.5336,1.5336,1.538,1.5395,1.5449,1.5481,1.5462,1.5552,1.555,1.5556,1.5529,1.553,1.5531,1.5523,1.548,0,0,0,0,0,1.4994,1.5037,1.5099,1.5143,1.5165,1.5214,1.5242,1.5266,1.5315,1.5334,1.5377,1.5425,1.5473,1.5503,1.5551,1.5607,1.5622,1.5629,1.563,1.563,1.5634,1.5667,1.567,1.5631,1.5631,1.5631,0,0,1.4995,1.504,1.5065,1.5138,1.5176,1.522,1.523,1.5276,1.5309,1.5342,1.5398,1.5432,1.5487,1.5544,1.5572,1.5573,1.5649,1.5633,1.5633,1.5637,1.5669,1.5673,1.5676,1.5633,1.5632,1.5632,0,0,1.5019,1.5057,1.5098,1.5135,1.5192,1.5225,1.5234,1.5297,1.532,1.5377,1.5402,1.5443,1.5525,1.5563,1.5594,1.5632,1.5649,1.5647,1.5652,1.5683,1.5686,1.5689,1.5702,1.5707,1.5651,1.565,1.565,0,1.5013,1.5079,1.5117,1.5162,1.5193,1.5224,1.5266,1.5301,1.5371,1.5392,1.5392,1.5495,1.5535,1.5601,1.5611,1.5634,1.5647,1.5639,1.5682,1.5685,1.5689,1.5702,1.5708,1.565,1.565,1.565,1.565,0,1.5069,1.5115,1.5141,1.5207,1.5242,1.5285,1.5329,1.536,1.5382,1.5414,1.5473,1.5522,1.5579,1.5597,1.5619,1.5667,1.5666,1.5673,1.5673,1.5691,1.5705,1.571,1.5649,1.5649,1.5649,1.5649,0,0,1.5077,1.5163,1.5172,1.5202,1.5267,1.5304,1.5349,1.5405,1.543,1.5477,1.5516,1.5585,1.5592,1.5627,1.5653,1.568,1.5708,1.5685,1.5687,1.5687,1.5764,1.5757,1.5763,1.5719,1.5721,1.5721,1.5759,0,1.5109,1.519,1.5225,1.529,1.5333,1.5363,1.5402,1.5447,1.5479,1.552,1.5556,1.5604,1.561,1.5631,1.5659,1.5698,1.5724,1.5696,1.5757,1.5758,1.5741,1.577,1.5764,1.5797,1.5765,1.5766,1.5766,0,1.5157,1.5204,1.5273,1.5332,1.5352,1.5386,1.5441,1.548,1.5531,1.5553,1.5591,1.5616,1.5665,1.5661,1.5729,1.571,1.5737,1.576,1.5762,1.5769,1.5763,1.5778,1.5808,1.5813,1.5775,1.5774,1.5774,0,1.5156,1.5236,1.5288,1.5313,1.5384,1.5408,1.5438,1.5489,1.552,1.5568,1.5589,1.5642,1.5671,1.5712,1.5751,1.5744,1.5815,1.5815,1.5835,1.5834,1.5849,1.5847,1.5884,1.5866,1.5866,1.5866,1.5866,0,1.5188,1.5229,1.5288,1.532,1.5367,1.5408,1.5453,1.5486,1.5531,1.557,1.56,1.5636,1.5685,1.5728,1.5759,1.5811,1.5824,1.5843,1.5851,1.584,1.5838,1.5859,1.5857,1.5867,1.5867,1.5867,1.5866,0,1.5195,1.5236,1.5294,1.5357,1.5374,1.5405,1.5459,1.5492,1.5525,1.5574,1.5588,1.5641,1.5693,1.5735,1.5804,1.5824,1.5879,1.5888,1.5861,1.5865,1.5883,1.588,1.5934,1.5943,1.5919,1.5919,1.5919,0,1.5212,1.5244,1.531,1.5338,1.5369,1.5414,1.5446,1.5487,1.552,1.558,1.5605,1.5659,1.5704,1.5786,1.5831,1.5883,1.5894,1.5909,1.5902,1.589,1.5894,1.5891,1.5895,1.5909,1.5909,1.5909,1.5909,0,1.5239,1.5258,1.5303,1.5355,1.5392,1.5435,1.5479,1.55,1.555,1.5585,1.5638,1.5673,1.5743,1.5796,1.5853,1.5886,1.5906,1.5911,1.5919,1.5908,1.5891,1.5901,1.5862,1.591,1.591,1.591,1.591,1.591,1.5252,1.5282,1.5333,1.5382,1.5419,1.5459,1.5493,1.553,1.5575,1.5634,1.5656,1.571,1.5762,1.584,1.5873,1.5917,1.5919,1.593,1.5933,1.5935,1.5933,1.5884,1.5927,1.5928,1.5928,1.5928,1.5928,0,1.528,1.5314,1.5359,1.5419,1.5458,1.5473,1.5523,1.5554,1.5601,1.5647,1.5691,1.5752,1.5803,1.5852,1.5906,1.5932,1.5943,1.5945,1.5943,1.5951,1.5928,1.5916,1.5935,1.5935,1.5935,1.5935,1.5935,1.5935,1.5299,1.5351,1.5375,1.5446,1.548,1.5533,1.556,1.5598,1.5634,1.5701,1.5744,1.5775,1.5822,1.588,1.5929,1.5942,1.5961,1.596,1.5976,1.5954,1.5952,1.5951,1.594,1.5964,1.5964,1.5995,1.5995,1.5995]},{"header":{"parameterUnit":"m.s-1","parameterCategory":1,"la1":30.2991,"la2":30.254,"lo1":-89.0895,"lo2":-89.0444,"dy":0.0017,"dx":0.0017,"nx":28,"ny":28,"refTime":"2025-04-14T09:00:00:Z","depth":0,"parameterNumber":3,"parameterNumberName":"V-component_of_WINDS"},"data":[0,0,0,0,0,0,0,0,0,0,0,0,0,0,0,0,0,0,0,0,0,0,0,0,0,0,0,0,0,0,0,0,0,0,0,0,0,0,0,0,0,0,0,0,0,0,0,0,0,0,0,0,0,0,0,0,0,0,5.6683,5.6683,0,5.6711,5.6712,5.6712,5.67,5.6699,5.6699,5.6698,5.6723,5.6724,5.6725,0,0,0,0,0,0,0,0,0,0,0,0,0,5.6615,5.6616,5.6683,5.6683,5.6684,5.6711,5.6712,5.6712,5.67,5.6699,5.6698,5.6698,5.6722,5.6724,5.6725,0,0,0,0,0,0,0,0,0,0,0,0,0,5.6644,5.6617,5.6683,5.6681,5.6681,5.6711,5.6712,5.6712,5.67,5.6699,5.6698,5.6697,5.6722,5.6724,5.6725,5.6757,0,0,5.6731,5.6732,0,0,0,0,0,0,0,0,5.6642,5.6646,5.6681,5.6681,5.6682,5.6701,5.6697,5.6727,5.67,5.6693,5.6698,5.6697,5.6716,5.6718,5.6726,5.6759,5.676,5.6732,5.6733,5.6734,5.6734,0,0,0,0,0,0,0,5.664,5.6645,5.6694,5.6682,5.6682,5.6678,5.6681,5.6702,5.671,5.6693,5.6693,5.6696,5.6716,5.6724,5.6726,5.676,5.6731,5.6733,5.6734,5.6735,5.6821,5.6822,0,0,0,0,0,0,5.6639,5.6643,5.6693,5.6695,5.6659,5.668,5.6683,5.6696,5.6709,5.6711,5.6697,5.6696,5.6721,5.6724,5.6727,5.6766,5.6733,5.6735,5.6736,5.682,5.6822,5.6823,0,0,0,0,0,0,5.6637,5.6643,5.6692,5.6669,5.6675,5.6682,5.6696,5.6697,5.6705,5.6712,5.6713,5.6704,5.672,5.6724,5.675,5.6767,5.6736,5.6738,5.6819,5.6821,5.6822,5.6844,0,0,0,0,0,0,5.6635,5.6643,5.6656,5.6669,5.6676,5.6716,5.6697,5.6698,5.6709,5.6707,5.6719,5.672,5.672,5.6748,5.6752,5.6769,5.6739,5.6817,5.682,5.6822,5.6842,5.6846,5.685,0,0,0,0,0,5.6633,5.6659,5.6657,5.6663,5.6693,5.6717,5.6721,5.6721,5.671,5.6723,5.6728,5.672,5.6764,5.675,5.6756,5.6773,5.6816,5.6819,5.6821,5.684,5.6845,5.685,0,0,0,0,0,0,5.6645,5.6661,5.6658,5.669,5.6702,5.6715,5.6731,5.6727,5.6741,5.6739,5.6738,5.674,5.6768,5.6773,5.6757,5.6805,5.6788,5.6792,5.6801,5.6806,5.681,5.6808,5.6741,0,0,0,0,0,5.6652,5.6672,5.6684,5.6711,5.6718,5.6723,5.6734,5.6733,5.6745,5.675,5.6757,5.6768,5.6785,5.6795,5.6811,5.6842,5.6845,5.6857,5.6861,5.6864,5.6867,5.6885,5.689,5.6831,5.6831,5.6831,0,0,5.6665,5.6677,5.6689,5.6714,5.6723,5.6743,5.6727,5.6748,5.6763,5.6753,5.6779,5.6784,5.6796,5.6826,5.6839,5.6831,5.6884,5.6867,5.687,5.6871,5.6888,5.6894,5.6899,5.6833,5.6833,5.6832,0,0,5.67,5.671,5.6735,5.6745,5.6761,5.6765,5.6771,5.6784,5.6788,5.6815,5.6808,5.6824,5.6853,5.6862,5.687,5.6911,5.6904,5.6916,5.6936,5.6954,5.6958,5.6963,5.6977,5.6982,5.6919,5.6919,5.6919,0,5.6714,5.6745,5.6747,5.6769,5.6781,5.6775,5.6799,5.6808,5.6828,5.6835,5.6826,5.6863,5.687,5.6902,5.6912,5.6919,5.6925,5.6914,5.6958,5.6962,5.6966,5.698,5.6985,5.692,5.692,5.692,5.692,0,5.6762,5.6783,5.68,5.6822,5.6835,5.6858,5.6863,5.6875,5.6874,5.6879,5.6906,5.6915,5.6933,5.6941,5.6939,5.6972,5.6967,5.6958,5.6942,5.6973,5.6986,5.6991,5.6922,5.6921,5.6921,5.6921,0,0,5.6803,5.6827,5.6834,5.6844,5.6862,5.6877,5.69,5.692,5.6931,5.6944,5.6963,5.6988,5.6981,5.699,5.6989,5.7005,5.7036,5.6994,5.6994,5.7002,5.7075,5.7081,5.7088,5.7032,5.7033,5.7034,5.7074,0,5.6839,5.6881,5.6885,5.6922,5.6942,5.6938,5.6957,5.697,5.6975,5.6992,5.6997,5.7015,5.7003,5.7009,5.7024,5.7029,5.7051,5.7027,5.7049,5.705,5.7046,5.7094,5.7101,5.7138,5.7079,5.708,5.708,0,5.6887,5.6905,5.6945,5.6961,5.697,5.6988,5.7006,5.7023,5.7037,5.7039,5.7051,5.7049,5.7071,5.7055,5.7086,5.7069,5.7078,5.7082,5.7084,5.7086,5.7067,5.7098,5.715,5.7155,5.7088,5.7088,5.7087,0,5.6914,5.6948,5.6976,5.6985,5.7005,5.7018,5.7026,5.7039,5.7051,5.7067,5.7075,5.7092,5.7102,5.7115,5.7117,5.7105,5.7149,5.7132,5.7151,5.7151,5.716,5.7159,5.7214,5.7166,5.7166,5.7166,5.7166,0,5.6954,5.6979,5.6989,5.7007,5.7034,5.7038,5.7064,5.7072,5.7084,5.7102,5.7099,5.7115,5.7117,5.7134,5.7136,5.7162,5.7166,5.7168,5.7168,5.7169,5.7168,5.7175,5.7172,5.7167,5.7167,5.7167,5.7166,0,5.6988,5.6997,5.7028,5.7045,5.705,5.7069,5.7083,5.71,5.7105,5.7128,5.7134,5.7142,5.7162,5.7166,5.7189,5.719,5.7221,5.7218,5.7217,5.7217,5.7236,5.7234,5.7297,5.7305,5.7251,5.7252,5.7252,0,5.7013,5.7033,5.7053,5.7066,5.7076,5.7097,5.711,5.7114,5.7127,5.7146,5.716,5.718,5.7197,5.7229,5.7236,5.7254,5.7252,5.7273,5.7254,5.7254,5.7252,5.7251,5.7253,5.7276,5.7276,5.7277,5.7277,0,5.7057,5.7061,5.7081,5.7103,5.7119,5.7135,5.7151,5.7161,5.7168,5.7183,5.7205,5.7218,5.7243,5.7263,5.7281,5.7288,5.7284,5.7283,5.7289,5.7289,5.7288,5.7289,5.7227,5.7282,5.7281,5.7281,5.7281,5.728,5.7088,5.7106,5.7123,5.7146,5.7159,5.7174,5.7191,5.72,5.7219,5.7241,5.7242,5.7265,5.728,5.7304,5.7313,5.7331,5.7324,5.7331,5.7333,5.7335,5.7338,5.7285,5.7334,5.7334,5.7333,5.7333,5.7333,0,5.7132,5.7144,5.7165,5.7188,5.7206,5.7203,5.722,5.7235,5.7257,5.7271,5.7288,5.7314,5.7333,5.7343,5.7362,5.7375,5.7373,5.738,5.7379,5.7381,5.7342,5.7336,5.7381,5.7381,5.7381,5.7381,5.7381,5.7381,5.7157,5.7187,5.7193,5.7229,5.724,5.7266,5.7276,5.729,5.7302,5.7331,5.7349,5.7355,5.7368,5.7388,5.7406,5.7408,5.7416,5.7423,5.7424,5.7388,5.7383,5.7379,5.7373,5.7425,5.7425,5.7461,5.7462,5.7462]}]]